Home   Weather   Salalah   Past weeks

Flag for Oman Past Weather in Salalah, Oman — Yesterday and Last 2 Weeks

Now
73 °F

Passing clouds.


Feels Like: 75 °F
Forecast: 70 / 81 °F
Wind: 5 mph from North

Location: Salalah Airport

Current Time: Jan 19, 2017 at 12:19:45 am

Latest Report: Jan 18, 2017 at 11:50 pm


Visibility: N/A

Pressure: 30.07 "Hg

Humidity: 74%

Dew Point: 64 °F

Location of SalalahLocation

Past Weather in Salalah — Graph

°F

Salalah Temperature Yesterday

Maximum temperature yesterday: 81 °F (at 10:50 am)
Minimum temperature yesterday: 68 °F (at 5:50 am)
Average temperature yesterday: 75 °F

High & Low Weather Summary for the Past Weeks

 TemperatureHumidityPressure
High90 °F (Jan 12, 12:50 pm)83% (Jan 13, 6:50 am)30.15 "Hg (Jan 13, 6:50 am)
Low64 °F (Jan 4, 4:50 am)7% (Jan 8, 12:50 pm)29.86 "Hg (Jan 8, 2:50 pm)
Average76 °F50%30.02 "Hg
* Reported Jan 3 10:50 pm — Jan 18 10:50 pm, Salalah, Weather by CustomWeather, © 2017

Note: Actual official high and low records may vary slightly from our data, if they occured in-between our weather recording intervals... More about our weather records

Advertising

Salalah Weather History for the Previous 24 Hours

Scroll right to see more
 ConditionsComfort  
Time TempWeatherWind HumidityBarometerVisibility
10:50 pm
Wed, Jan 18
73 °FClear.5 mph74%30.09 "Hg10 mi
9:50 pm75 °FClear.5 mph69%30.09 "Hg10 mi
8:50 pm77 °FClear.2 mph65%30.07 "Hg10 mi
7:50 pm77 °FPassing clouds.3 mph65%30.07 "HgN/A
6:50 pm77 °FPassing clouds.2 mph69%30.07 "HgN/A
5:50 pm77 °FPassing clouds.6 mph69%30.04 "HgN/A
4:50 pm79 °FScattered clouds.8 mph65%30.04 "HgN/A
3:50 pm79 °FScattered clouds.8 mph65%30.01 "HgN/A
2:50 pm79 °FPassing clouds.9 mph70%30.01 "HgN/A
1:50 pm81 °FPassing clouds.9 mph58%30.01 "HgN/A
12:50 pm79 °FPassing clouds.10 mph65%30.04 "HgN/A
11:50 am79 °FPassing clouds.12 mph61%30.07 "HgN/A
10:50 am81 °FPassing clouds.7 mph54%30.09 "HgN/A
9:50 am79 °FSunny.7 mph58%30.12 "Hg10 mi
8:50 am77 °FSunny.2 mph47%30.12 "Hg10 mi
7:50 am75 °FSunny.8 mph47%30.09 "Hg10 mi
6:50 am68 °FClear.3 mph73%30.07 "Hg10 mi
5:50 am68 °FClear.2 mph78%30.04 "Hg10 mi
4:50 am70 °FClear.2 mph69%30.04 "Hg10 mi
3:50 am70 °FClear.6 mph78%30.01 "Hg10 mi
2:50 am72 °FClear.6 mph78%30.01 "Hg10 mi
1:50 am72 °FPassing clouds.7 mph78%30.04 "HgN/A
12:50 am73 °FPassing clouds.3 mph78%30.04 "HgN/A
Weather by CustomWeather, © 2017

See weather overviewHow to use our weather pages